Location: Thompson
(55.7500°N, 97.8670°W)
Time: 18:08:53
(UTC-06:00)

Amateur Radio Satellites - All Passes

Search period start: 26 November 2014 17:38
Search period end: 27 November 2014 17:38
Location: Thompson, 55.7500°N, 97.8670°W

Satellite Date Start Highest point End Downlink Frequencies (MHz)
Time Altitude Azimuth
GONETS M04 26 Nov 17:55:37 18:03:38 36° 56° (ENE) 18:11:33
CUTE-I 26 Nov 17:57:20 18:02:42 71° 256° (WSW) 18:08:04 437.470
HO-68 26 Nov 18:02:42 18:08:16 25° 42° (NE) 18:13:50 435.675
AO-7 26 Nov 18:17:07 18:21:06 14° 283° (WNW) 18:25:07 29.400- 29.500
STRAND 1 26 Nov 18:18:48 18:22:21 19° 87° (E) 18:25:52 437.568
PRISM 26 Nov 18:23:15 18:27:14 37° 97° (E) 18:31:11 437.425
CUTE 1.7 + AOD 2 26 Nov 18:44:48 18:47:15 15° 52° (NE) 18:49:43 437.475
GOMX 1 26 Nov 18:55:33 18:58:09 15° 53° (NE) 19:00:42 467.674
Cubesat XI-IV 26 Nov 18:57:22 19:01:56 28° 268° (W) 19:06:32 437.490
MOZHAYETS 4 26 Nov 19:03:02 19:07:08 31° 299° (WNW) 19:11:12
CUBESAT XI-V 26 Nov 19:08:53 19:13:25 45° 98° (E) 19:17:53 437.345
JAS-2 26 Nov 19:13:16 19:17:53 17° 284° (WNW) 19:22:32 435.910
UKube-1 26 Nov 19:14:15 19:16:12 13° 48° (NE) 19:18:08 .
SEEDS 26 Nov 19:15:49 19:19:06 23° 58° (ENE) 19:22:25 437.485
Oscar 11 26 Nov 19:24:18 19:26:44 15° 51° (NE) 19:29:10 145.826/435.025
BRITE-PL 26 Nov 19:26:05 19:30:16 32° 63° (ENE) 19:34:12 437.365/2234.400
AAUSAT CUBESAT 2 26 Nov 19:31:01 19:34:22 24° 59° (ENE) 19:37:45 437.432
DELFI C3 26 Nov 19:33:48 19:36:01 14° 52° (NE) 19:38:14 145.870
AIST 1 26 Nov 19:36:18 19:40:21 37° 92° (E) 19:44:26
PCSat 26 Nov 19:37:53 19:42:21 27° 113° (ESE) 19:46:51 145.827
CUTE-I 26 Nov 19:40:50 19:43:46 15° 277° (W) 19:46:43 437.470
RS-15 26 Nov 19:41:13 19:52:02 62° 339° (NNW) 20:03:07 29.354- 29.394
BEESAT 2 26 Nov 19:43:47 19:44:59 11° 111° (ESE) 19:46:11 435.950
CANX-2 26 Nov 19:44:02 19:48:02 43° 66° (ENE) 19:52:05 2200.000
COMPASS 1 26 Nov 19:46:20 19:50:06 34° 63° (ENE) 19:53:54 437.405
UWE-3 26 Nov 19:46:22 19:48:17 13° 50° (NE) 19:50:12 435.000/436.395/437.385
DOVE 4 26 Nov 19:46:24 19:50:09 28° 61° (ENE) 19:53:46 437.250
CUBEBUG 2 26 Nov 19:47:19 19:49:36 15° 52° (NE) 19:51:53 437.445
HO-68 26 Nov 19:47:50 19:54:59 72° 65° (ENE) 20:02:10 435.675
DX 1 26 Nov 19:48:46 19:52:09 22° 56° (NE) 19:55:31 434.975-435.025
GONETS M04 26 Nov 19:52:35 20:01:28 80° 262° (W) 20:10:14
STRAND 1 26 Nov 19:57:06 20:02:16 89° 288° (WNW) 20:07:23 437.568
PRISM 26 Nov 19:58:55 20:02:48 35° 297° (WNW) 20:06:39 437.425
HUMSAT D 26 Nov 19:59:00 19:59:06 10° 47° (NE) 19:59:12 437.325/437.525
CINEMA 3 26 Nov 20:16:23 20:20:11 32° 63° (ENE) 20:23:55 145.822/145.860
ZACube-1 26 Nov 20:18:19 20:21:20 20° 56° (ENE) 20:24:20 437.345
CUTE 1.7 + AOD 2 26 Nov 20:18:20 20:22:33 79° 73° (ENE) 20:26:50 437.475
AIST 2 26 Nov 20:20:43 20:22:49 14° 112° (ESE) 20:24:57 435.215
VELOX 1 26 Nov 20:22:31 20:25:34 18° 53° (NE) 20:28:36 145.980
ESTCUBE 1 26 Nov 20:26:20 20:27:28 11° 44° (NE) 20:28:35 437.505/2401.250
GOMX 1 26 Nov 20:31:07 20:35:44 77° 72° (ENE) 20:40:05 467.674
CUBESAT XI-V 26 Nov 20:46:34 20:50:47 33° 299° (WNW) 20:54:56 437.345
UKube-1 26 Nov 20:47:16 20:51:33 58° 68° (ENE) 20:55:51 .
AISAT 26 Nov 20:48:21 20:52:07 27° 59° (ENE) 20:55:53 437.250
SEEDS 26 Nov 20:50:28 20:54:38 62° 258° (WSW) 20:58:51 437.485
FUNcube-1 26 Nov 20:52:09 20:55:56 34° 64° (ENE) 20:59:43 145.935
Oscar 11 26 Nov 20:57:56 21:02:14 74° 72° (ENE) 21:06:34 145.826/435.025
CUBEBUG 1 26 Nov 20:59:23 21:02:10 17° 52° (NE) 21:04:58 437.445
BEESAT 3 26 Nov 21:02:20 21:06:18 47° 128° (SE) 21:10:21 437.485
BRITE-PL 26 Nov 21:04:05 21:08:44 46° 261° (W) 21:13:04 437.365/2234.400
AAUSAT CUBESAT 2 26 Nov 21:05:41 21:09:48 56° 259° (W) 21:13:57 437.432
DELFI C3 26 Nov 21:06:36 21:10:41 76° 72° (ENE) 21:14:49 145.870
50 SAT 26 Nov 21:13:38 21:17:11 30° 63° (ENE) 21:20:45 437.505
AIST 1 26 Nov 21:14:01 21:18:05 34° 292° (WNW) 21:22:10
BEESAT 2 26 Nov 21:18:20 21:22:25 57° 131° (SE) 21:26:34 435.950
PCSat 26 Nov 21:19:52 21:25:19 79° 315° (NW) 21:30:48 145.827
UWE-3 26 Nov 21:19:58 21:24:08 67° 71° (ENE) 21:28:17 435.000/436.395/437.385
CANX-2 26 Nov 21:20:27 21:24:09 29° 266° (W) 21:27:53 2200.000
CUBEBUG 2 26 Nov 21:21:29 21:25:42 77° 72° (ENE) 21:29:53 437.445
COMPASS 1 26 Nov 21:21:56 21:25:50 37° 263° (W) 21:29:46 437.405
DOVE 4 26 Nov 21:23:28 21:27:49 49° 260° (W) 21:31:59 437.250
DX 1 26 Nov 21:23:39 21:28:01 70° 256° (WSW) 21:32:25 434.975-435.025
HUMSAT D 26 Nov 21:30:03 21:34:01 48° 68° (ENE) 21:38:01 437.325/437.525
HO-68 26 Nov 21:36:52 21:43:17 34° 267° (W) 21:49:44 435.675
STRAND 1 26 Nov 21:37:05 21:40:52 21° 309° (NW) 21:44:39 437.568
GONETS M04 26 Nov 21:50:23 21:56:58 24° 287° (WNW) 22:03:31
ZACube-1 26 Nov 21:53:09 21:57:20 72° 256° (WSW) 22:01:30 437.345
CINEMA 3 26 Nov 21:53:19 21:57:23 40° 262° (W) 22:01:21 145.822/145.860
RS-15 26 Nov 21:55:37 22:06:24 56° 11° (NNE) 22:17:33 29.354- 29.394
CUTE 1.7 + AOD 2 26 Nov 21:56:22 21:59:04 16° 273° (W) 22:01:48 437.475
AIST 2 26 Nov 21:56:28 22:00:42 66° 133° (SE) 22:05:00 435.215
VELOX 1 26 Nov 21:57:07 22:01:36 89° 71° (ENE) 22:06:07 145.980
ESTCUBE 1 26 Nov 21:58:59 22:03:19 45° 65° (ENE) 22:07:41 437.505/2401.250
DANDE 26 Nov 22:01:07 22:02:42 12° 57° (ENE) 22:04:25 436.750
AUBIESAT-1 26 Nov 22:03:17 22:05:17 13° 36° (NE) 22:07:20 437.475
TISAT 1 26 Nov 22:06:54 22:09:56 19° 55° (NE) 22:12:58 437.305
M-CUBED/EXP-1 PRIME 26 Nov 22:08:38 22:11:01 14° 38° (NE) 22:13:28 437.505
GOMX 1 26 Nov 22:11:17 22:14:23 18° 271° (W) 22:17:23 467.674
NANOSAT C BR1 26 Nov 22:13:37 22:15:26 12° 85° (E) 22:17:14 145.865
SPROUT 26 Nov 22:19:12 22:22:28 21° 57° (ENE) 22:25:45 437.525
QB50P1 26 Nov 22:23:07 22:25:37 15° 87° (E) 22:28:06 145.935-145.965
AISAT 26 Nov 22:24:08 22:28:32 55° 259° (WSW) 22:32:57 437.250
UKube-1 26 Nov 22:24:36 22:28:05 23° 268° (W) 22:31:35 .
FUNcube-1 26 Nov 22:28:28 22:32:20 36° 263° (W) 22:36:11 145.935
BUGSAT 1 26 Nov 22:29:19 22:31:31 14° 86° (E) 22:33:42 437.445
TIGRISAT 26 Nov 22:31:15 22:34:53 24° 92° (E) 22:38:33 435.000
CUBEBUG 1 26 Nov 22:33:29 22:37:56 81° 72° (ENE) 22:42:24 437.445
Oscar 11 26 Nov 22:35:58 22:38:56 18° 272° (W) 22:41:55 145.826/435.025
BEESAT 3 26 Nov 22:40:36 22:44:37 44° 330° (NNW) 22:48:41 437.485
DELFI C3 26 Nov 22:43:57 22:46:32 16° 272° (W) 22:49:08 145.870
UNISAT 6 26 Nov 22:45:14 22:49:13 32° 95° (E) 22:53:16 437.425
POPSAT HIP 1 26 Nov 22:47:24 22:50:52 24° 92° (E) 22:54:18 437.405
50 SAT 26 Nov 22:48:40 22:52:27 38° 262° (W) 22:56:16 437.505
BEESAT 2 26 Nov 22:56:57 23:00:55 40° 333° (NNW) 23:04:56 435.950
UWE-3 26 Nov 22:58:11 23:01:09 19° 271° (W) 23:04:07 435.000/436.395/437.385
CUBEBUG 2 26 Nov 23:00:18 23:02:58 16° 272° (W) 23:05:38 437.445
MaSat-1 26 Nov 23:03:18 23:05:17 24° 43° (NE) 23:07:15 437.345
DX 1 26 Nov 23:03:37 23:05:07 12° 276° (W) 23:06:37 434.975-435.025
PCSat 26 Nov 23:04:37 23:09:29 32° 338° (NNW) 23:14:22 145.827
HUMSAT D 26 Nov 23:06:41 23:10:06 25° 267° (W) 23:13:32 437.325/437.525
CUSAT 1 26 Nov 23:12:41 23:16:39 46° 71° (ENE) 23:21:57 437.405
ANTELSAT 26 Nov 23:13:56 23:18:18 55° 101° (E) 23:22:44 437.575/2403.000
ITUPSAT 1 26 Nov 23:18:28 23:22:01 21° 53° (NE) 23:25:34 437.325
POLYITAN 1 26 Nov 23:21:12 23:25:19 46° 99° (E) 23:29:24 437.675
QB50P2 26 Nov 23:22:50 23:26:58 48° 100° (E) 23:31:04 145.880/145.840
DUCHIFAT 1 26 Nov 23:28:15 23:32:24 53° 101° (E) 23:36:32 145.980
SWISSCUBE 26 Nov 23:28:33 23:32:27 25° 56° (NE) 23:36:23 437.505
ZACube-1 26 Nov 23:33:22 23:34:32 11° 276° (W) 23:35:42 437.345
AUBIESAT-1 26 Nov 23:35:05 23:39:12 43° 57° (ENE) 23:43:39 437.475
AIST 2 26 Nov 23:35:36 23:39:38 37° 335° (NNW) 23:43:42 435.215
VELOX 1 26 Nov 23:36:09 23:38:52 16° 273° (W) 23:41:35 145.980
ESTCUBE 1 26 Nov 23:36:17 23:40:22 32° 265° (W) 23:44:28 437.505/2401.250
M-CUBED/EXP-1 PRIME 26 Nov 23:40:55 23:45:06 51° 59° (ENE) 23:49:39 437.505
TISAT 1 26 Nov 23:41:03 23:45:20 79° 255° (WSW) 23:49:37 437.305
DANDE 26 Nov 23:42:42 23:46:39 67° 74° (ENE) 23:52:02 436.750
NANOSAT C BR1 26 Nov 23:47:49 23:52:05 79° 105° (ESE) 23:56:18 145.865
SPROUT 26 Nov 23:53:53 23:58:11 69° 257° (WSW) 00:02:31 437.525
QB50P1 26 Nov 23:57:53 00:02:08 85° 288° (WNW) 00:06:22 145.935-145.965
BEESAT 26 Nov 23:58:44 00:03:08 38° 62° (ENE) 00:07:35 436.000
BUGSAT 1 27 Nov 00:03:32 00:07:41 88° 287° (WNW) 00:11:45 437.445
TIGRISAT 27 Nov 00:07:40 00:11:57 55° 292° (WNW) 00:16:20 435.000
RS-15 27 Nov 00:08:52 00:20:01 88° 42° (NE) 00:31:37 29.354- 29.394
KKS-1 27 Nov 00:11:40 00:14:19 16° 51° (NE) 00:16:57 437.445
CUBEBUG 1 27 Nov 00:11:57 00:14:54 17° 272° (W) 00:17:51 437.445
BEESAT 3 27 Nov 00:20:16 00:23:44 24° 353° (N) 00:27:14 437.485
UNISAT 6 27 Nov 00:21:59 00:26:09 42° 295° (WNW) 00:30:23 437.425
POPSAT HIP 1 27 Nov 00:22:57 00:27:05 52° 292° (WNW) 00:31:11 437.405
BEESAT 2 27 Nov 00:36:42 00:40:10 24° 356° (N) 00:43:39 435.950
MaSat-1 27 Nov 00:37:54 00:39:44 20° 243° (WSW) 00:41:34 437.345
PCSat 27 Nov 00:49:56 00:54:25 25° 4° (N) 00:58:54 145.827
ANTELSAT 27 Nov 00:51:13 00:54:54 27° 301° (WNW) 00:58:38 437.575/2403.000
ITUPSAT 1 27 Nov 00:54:32 00:59:22 87° 254° (WSW) 01:04:15 437.325
ISS 27 Nov 00:54:37 00:57:19 24° 157° (SSE) 01:00:02 145.825
CUSAT 1 27 Nov 00:56:01 00:59:46 30° 264° (W) 01:04:34 437.405
POLYITAN 1 27 Nov 00:57:30 01:01:08 28° 299° (WNW) 01:04:46 437.675
QB50P2 27 Nov 00:59:08 01:02:44 28° 300° (WNW) 01:06:20 145.880/145.840
STARS 27 Nov 01:03:58 01:07:39 27° 59° (ENE) 01:11:21 437.465
DUCHIFAT 1 27 Nov 01:04:35 01:08:04 26° 301° (WNW) 01:11:33 145.980
SWISSCUBE 27 Nov 01:05:10 01:09:58 68° 256° (WSW) 01:14:48 437.505
AUBIESAT-1 27 Nov 01:10:23 01:14:19 35° 259° (W) 01:18:34 437.475
AIST 2 27 Nov 01:15:42 01:19:16 24° 358° (N) 01:22:52 435.215
M-CUBED/EXP-1 PRIME 27 Nov 01:16:39 01:20:24 29° 261° (W) 01:24:27 437.505
YUBILEINY 27 Nov 01:18:19 01:25:03 26° 75° (ENE) 01:31:45 435.215
TISAT 1 27 Nov 01:20:04 01:21:56 13° 275° (W) 01:23:48 437.305
NANOSAT C BR1 27 Nov 01:24:33 01:27:31 19° 305° (NW) 01:30:28 145.865
DANDE 27 Nov 01:26:57 01:30:02 20° 267° (W) 01:33:44 436.750
SPROUT 27 Nov 01:33:48 01:35:08 11° 277° (W) 01:36:28 437.525
QB50P1 27 Nov 01:34:51 01:37:28 16° 307° (NW) 01:40:05 145.935-145.965
BEESAT 27 Nov 01:36:26 01:40:59 42° 262° (W) 01:45:35 436.000
Gurwin Techsat 1B 27 Nov 01:38:28 01:40:13 12° 80° (E) 01:41:57 435.225
BUGSAT 1 27 Nov 01:40:06 01:42:37 16° 307° (NW) 01:45:08 437.445
Oscar 19 27 Nov 01:42:16 01:47:06 38° 96° (E) 01:51:54 437.125/150
KKS-1 27 Nov 01:45:50 01:50:17 74° 71° (ENE) 01:54:45 437.445
TIGRISAT 27 Nov 01:46:10 01:47:53 12° 312° (NW) 01:49:37 435.000
BEESAT 3 27 Nov 01:59:23 02:03:04 28° 17° (NNE) 02:06:45 437.485
POPSAT HIP 1 27 Nov 02:00:53 02:02:07 11° 313° (NW) 02:03:22 437.405
BEESAT 2 27 Nov 02:15:45 02:19:32 31° 20° (NNE) 02:23:19 435.950
RS-15 27 Nov 02:21:31 02:31:27 40° 248° (WSW) 02:41:46 29.354- 29.394
ISS 27 Nov 02:30:24 02:33:31 40° 177° (S) 02:36:38 145.825
PCSat 27 Nov 02:34:04 02:39:12 39° 29° (NNE) 02:44:18 145.827
ITUPSAT 1 27 Nov 02:34:58 02:38:00 17° 274° (W) 02:41:04 437.325
ITAMSAT 1 27 Nov 02:37:40 02:42:41 45° 99° (E) 02:47:38 435.822/435.867
STARS 27 Nov 02:39:37 02:43:56 54° 259° (W) 02:48:16 437.465
SWISSCUBE 27 Nov 02:46:42 02:48:47 13° 277° (W) 02:50:53 437.505
HORYU 2 27 Nov 02:48:09 02:51:10 18° 88° (E) 02:54:11 437.375
AIST 2 27 Nov 02:55:00 02:58:58 33° 22° (NNE) 03:02:55 435.215
MOZHAYETS 4 27 Nov 02:59:16 03:02:45 22° 55° (NE) 03:06:16
YUBILEINY 27 Nov 03:11:50 03:20:39 83° 99° (E) 03:29:27 435.215
Gurwin Techsat 1B 27 Nov 03:16:07 03:21:23 58° 101° (E) 03:26:37 435.225
Oscar 19 27 Nov 03:21:39 03:26:33 45° 297° (WNW) 03:31:27 437.125/150
KKS-1 27 Nov 03:24:19 03:27:28 19° 271° (W) 03:30:38 437.445
BEESAT 3 27 Nov 03:37:41 03:41:55 73° 39° (NE) 03:46:06 437.485
SO-50 27 Nov 03:46:12 03:49:55 25° 119° (ESE) 03:53:43 436.795
PRISM 27 Nov 03:48:06 03:50:33 15° 51° (NE) 03:53:00 437.425
BEESAT 2 27 Nov 03:54:05 03:58:21 86° 42° (NE) 04:02:34 435.950
STRAND 1 27 Nov 04:05:43 04:08:28 15° 45° (NE) 04:11:13 437.568
ISS 27 Nov 04:06:49 04:09:46 30° 197° (SSW) 04:12:42 145.825
AO-7 27 Nov 04:10:32 04:18:12 38° 95° (E) 04:25:48 29.400- 29.500
ITAMSAT 1 27 Nov 04:17:21 04:22:09 39° 299° (WNW) 04:26:55 435.822/435.867
PCSat 27 Nov 04:17:36 04:23:02 72° 232° (SW) 04:28:26 145.827
HORYU 2 27 Nov 04:23:55 04:28:26 81° 288° (WNW) 04:32:57 437.375
JAS-2 27 Nov 04:26:14 04:31:38 22° 81° (E) 04:36:36 435.910
AIST 2 27 Nov 04:33:42 04:38:03 84° 224° (SW) 04:42:21 435.215
MOZHAYETS 4 27 Nov 04:34:54 04:39:32 78° 256° (WSW) 04:44:13
CUBESAT XI-V 27 Nov 04:43:58 04:47:28 21° 55° (NE) 04:50:58 437.345
Gurwin Techsat 1B 27 Nov 04:56:28 05:01:09 33° 302° (WNW) 05:05:50 435.225
Oscar 19 27 Nov 05:02:42 05:04:46 12° 318° (NW) 05:06:49 437.125/150
YUBILEINY 27 Nov 05:10:45 05:18:33 34° 305° (NW) 05:26:22 435.215
BEESAT 3 27 Nov 05:16:22 05:19:49 25° 240° (WSW) 05:23:13 437.485
PRISM 27 Nov 05:21:13 05:25:27 76° 71° (ENE) 05:29:43 437.425
SO-50 27 Nov 05:25:24 05:30:01 81° 320° (NW) 05:34:49 436.795
Cubesat XI-IV 27 Nov 05:27:06 05:29:55 14° 83° (E) 05:32:42 437.490
BEESAT 2 27 Nov 05:33:03 05:36:11 20° 242° (WSW) 05:39:17 435.950
AIST 1 27 Nov 05:35:48 05:39:25 24° 62° (ENE) 05:42:59
STRAND 1 27 Nov 05:41:41 05:46:42 55° 66° (ENE) 05:51:44 437.568
ISS 27 Nov 05:44:27 05:45:41 12° 216° (SW) 05:46:55 145.825
ITAMSAT 1 27 Nov 05:58:57 06:00:23 11° 321° (NW) 06:01:48 435.822/435.867
HORYU 2 27 Nov 06:01:38 06:04:30 17° 309° (NW) 06:07:23 437.375
PCSat 27 Nov 06:02:10 06:05:36 17° 253° (WSW) 06:09:00 145.827
AO-7 27 Nov 06:03:19 06:11:40 74° 298° (WNW) 06:19:59 29.400- 29.500
CUTE-I 27 Nov 06:07:06 06:11:36 27° 92° (E) 06:16:05 437.470
JAS-2 27 Nov 06:10:32 06:17:59 81° 105° (ESE) 06:24:31 435.910
AIST 2 27 Nov 06:13:12 06:16:07 18° 245° (WSW) 06:19:00 435.215
MOZHAYETS 4 27 Nov 06:15:14 06:17:35 14° 276° (W) 06:19:57
CUBESAT XI-V 27 Nov 06:19:40 06:24:25 83° 255° (WSW) 06:29:11 437.345
O/OREOS (USA 219) 27 Nov 06:33:37 06:38:00 58° 116° (ESE) 06:42:25 437.305
PRISM 27 Nov 06:58:44 07:01:33 17° 271° (W) 07:04:23 437.425
Cubesat XI-IV 27 Nov 07:05:41 07:11:02 70° 104° (ESE) 07:16:20 437.490
SO-50 27 Nov 07:06:55 07:11:11 34° 344° (NNW) 07:15:35 436.795
GONETS M04 27 Nov 07:08:14 07:15:16 28° 76° (ENE) 07:22:20
AIST 1 27 Nov 07:13:07 07:17:27 56° 264° (W) 07:21:42
YUBILEINY 27 Nov 07:14:50 07:18:58 14° 335° (NNW) 07:23:07 435.215
STRAND 1 27 Nov 07:21:39 07:26:11 31° 266° (W) 07:30:44 437.568
CUTE-I 27 Nov 07:46:50 07:52:08 65° 292° (WNW) 07:57:23 437.470
JAS-2 27 Nov 07:55:58 08:02:22 33° 309° (NW) 08:08:13 435.910
AO-7 27 Nov 07:56:32 08:03:22 29° 322° (NW) 08:10:12 29.400- 29.500
CUBESAT XI-V 27 Nov 07:59:54 08:02:38 15° 275° (W) 08:05:22 437.345
TIGRISAT 27 Nov 08:04:37 08:05:48 11° 47° (NE) 08:06:59 435.000
O/OREOS (USA 219) 27 Nov 08:13:43 08:17:43 31° 318° (NW) 08:21:43 437.305
POPSAT HIP 1 27 Nov 08:15:57 08:16:42 10° 46° (NE) 08:17:26 437.405
UNISAT 6 27 Nov 08:17:50 08:20:03 14° 50° (NE) 08:22:15 437.425
GOMX 1 27 Nov 08:27:10 08:28:31 11° 84° (E) 08:29:53 467.674
SEEDS 27 Nov 08:28:50 08:31:20 15° 86° (E) 08:33:48 437.485
AAUSAT CUBESAT 2 27 Nov 08:42:50 08:45:25 16° 87° (E) 08:47:59 437.432
ANTELSAT 27 Nov 08:45:27 08:48:41 21° 56° (ENE) 08:51:57 437.575/2403.000
Cubesat XI-IV 27 Nov 08:46:17 08:50:47 28° 305° (NW) 08:55:14 437.490
POLYITAN 1 27 Nov 08:47:53 08:50:43 18° 54° (NE) 08:53:33 437.675
SO-50 27 Nov 08:48:41 08:52:53 30° 8° (N) 08:57:09 436.795
QB50P2 27 Nov 08:49:16 08:52:09 18° 54° (NE) 08:55:02 145.880/145.840
DUCHIFAT 1 27 Nov 08:54:13 08:57:14 19° 55° (NE) 09:00:14 145.980
HO-68 27 Nov 08:54:57 09:01:32 37° 95° (E) 09:08:03 435.675
CANX-2 27 Nov 08:57:59 09:01:49 31° 94° (E) 09:05:39 2200.000
COMPASS 1 27 Nov 08:58:33 09:01:58 23° 91° (E) 09:05:23 437.405
BRITE-PL 27 Nov 09:01:10 09:04:48 28° 94° (E) 09:08:26 437.365/2234.400
GONETS M04 27 Nov 09:02:10 09:11:02 89° 100° (E) 09:19:58
DX 1 27 Nov 09:06:17 09:08:14 13° 85° (E) 09:10:10 434.975-435.025
NANOSAT C BR1 27 Nov 09:13:12 09:16:44 26° 60° (ENE) 09:20:16 145.865
DOVE 4 27 Nov 09:15:06 09:18:29 23° 92° (E) 09:21:54 437.250
YUBILEINY 27 Nov 09:18:58 09:21:10 11° 11° (N) 09:23:23 435.215
QB50P1 27 Nov 09:23:02 09:26:46 31° 62° (ENE) 09:30:31 145.935-145.965
BUGSAT 1 27 Nov 09:26:21 09:29:59 29° 61° (ENE) 09:33:37 437.445
CUTE-I 27 Nov 09:27:58 09:31:20 17° 314° (NW) 09:34:42 437.470
CUTE 1.7 + AOD 2 27 Nov 09:32:16 09:36:31 56° 101° (E) 09:40:45 437.475
ZACube-1 27 Nov 09:35:43 09:37:52 14° 86° (E) 09:40:01 437.345
TIGRISAT 27 Nov 09:37:33 09:41:40 51° 68° (ENE) 09:45:50 435.000
CINEMA 3 27 Nov 09:40:30 09:44:04 26° 93° (E) 09:47:42 145.822/145.860
JAS-2 27 Nov 09:41:57 09:45:16 14° 334° (NNW) 09:48:29 435.910
VELOX 1 27 Nov 09:43:06 09:44:04 11° 83° (E) 09:45:02 145.980
POPSAT HIP 1 27 Nov 09:47:36 09:51:41 48° 67° (ENE) 09:55:47 437.405
AO-7 27 Nov 09:48:58 09:53:40 17° 349° (NNW) 09:58:22 29.400- 29.500
UNISAT 6 27 Nov 09:51:53 09:56:08 69° 71° (ENE) 10:00:25 437.425
O/OREOS (USA 219) 27 Nov 09:56:38 09:58:34 13° 342° (NNW) 10:00:31 437.305
GOMX 1 27 Nov 10:03:18 10:07:29 77° 104° (ESE) 10:11:41 467.674
SEEDS 27 Nov 10:03:30 10:07:48 88° 286° (WNW) 10:12:05 437.485
UKube-1 27 Nov 10:03:56 10:08:00 37° 97° (E) 10:12:01 .
AISAT 27 Nov 10:08:37 10:11:41 18° 89° (E) 10:14:44 437.250
FUNcube-1 27 Nov 10:09:24 10:12:57 25° 93° (E) 10:16:31 145.935
Oscar 11 27 Nov 10:14:01 10:18:18 53° 100° (E) 10:22:34 145.826/435.025
DELFI C3 27 Nov 10:15:23 10:19:25 48° 99° (E) 10:23:26 145.870
AAUSAT CUBESAT 2 27 Nov 10:17:26 10:21:41 83° 287° (WNW) 10:25:56 437.432
ANTELSAT 27 Nov 10:20:53 10:25:08 68° 257° (WSW) 10:29:26 437.575/2403.000
POLYITAN 1 27 Nov 10:21:54 10:26:10 87° 254° (WSW) 10:30:26 437.675
50 SAT 27 Nov 10:22:30 10:25:26 19° 90° (E) 10:28:22 437.505
QB50P2 27 Nov 10:23:19 10:27:35 85° 255° (WSW) 10:31:52 145.880/145.840
DUCHIFAT 1 27 Nov 10:28:24 10:32:40 78° 255° (WSW) 10:36:56 145.980
SO-50 27 Nov 10:29:35 10:34:19 53° 31° (NNE) 10:39:07 436.795
CANX-2 27 Nov 10:33:51 10:37:54 42° 294° (WNW) 10:41:57 2200.000
COMPASS 1 27 Nov 10:33:52 10:38:02 55° 291° (WNW) 10:42:12 437.405
UWE-3 27 Nov 10:38:55 10:43:03 51° 100° (E) 10:47:15 435.000/436.395/437.385
BRITE-PL 27 Nov 10:39:36 10:43:32 41° 294° (WNW) 10:47:26 437.365/2234.400
DX 1 27 Nov 10:40:52 10:45:16 78° 105° (ESE) 10:49:36 434.975-435.025
CUBEBUG 2 27 Nov 10:41:45 10:45:56 61° 102° (ESE) 10:50:12 437.445
HO-68 27 Nov 10:42:37 10:49:44 67° 297° (WNW) 10:56:49 435.675
HUMSAT D 27 Nov 10:43:01 10:46:49 33° 96° (E) 10:50:37 437.325/437.525
NANOSAT C BR1 27 Nov 10:48:16 10:52:25 52° 259° (W) 10:56:36 145.865
DOVE 4 27 Nov 10:52:33 10:56:35 51° 292° (WNW) 11:00:41 437.250
QB50P1 27 Nov 10:58:33 11:02:36 42° 261° (W) 11:06:40 145.935-145.965
BUGSAT 1 27 Nov 11:01:16 11:05:22 46° 261° (W) 11:09:27 437.445
GONETS M04 27 Nov 11:01:25 11:09:07 32° 307° (NW) 11:16:53
CUTE 1.7 + AOD 2 27 Nov 11:08:42 11:12:12 25° 301° (WNW) 11:15:42 437.475
ZACube-1 27 Nov 11:10:41 11:14:56 86° 105° (ESE) 11:19:14 437.345
TIGRISAT 27 Nov 11:15:14 11:18:44 24° 268° (W) 11:22:16 435.000
YUBILEINY 27 Nov 11:15:54 11:22:31 23° 44° (NE) 11:29:05 435.215
VELOX 1 27 Nov 11:17:10 11:21:36 64° 103° (ESE) 11:25:59 145.980
CINEMA 3 27 Nov 11:17:30 11:21:32 47° 293° (WNW) 11:25:38 145.822/145.860
ESTCUBE 1 27 Nov 11:21:09 11:25:19 34° 95° (E) 11:29:27 437.505/2401.250
TISAT 1 27 Nov 11:21:09 11:22:09 11° 83° (E) 11:23:09 437.305
POPSAT HIP 1 27 Nov 11:24:13 11:27:50 26° 267° (W) 11:31:27 437.405
Oscar 19 27 Nov 11:28:51 11:32:58 25° 54° (NE) 11:37:06 437.125/150
UNISAT 6 27 Nov 11:30:25 11:33:26 19° 271° (W) 11:36:30 437.425
Gurwin Techsat 1B 27 Nov 11:30:29 11:31:55 11° 38° (NE) 11:33:20 435.225
SPROUT 27 Nov 11:34:42 11:36:51 14° 85° (E) 11:39:00 437.525
AO-7 27 Nov 11:38:28 11:43:27 18° 16° (NNE) 11:48:27 29.400- 29.500
O/OREOS (USA 219) 27 Nov 11:39:09 11:40:04 11° 8° (N) 11:41:00 437.305
UKube-1 27 Nov 11:40:12 11:44:12 36° 297° (WNW) 11:48:10 .
SEEDS 27 Nov 11:40:21 11:43:05 17° 306° (NW) 11:45:49 437.485
GOMX 1 27 Nov 11:42:20 11:45:12 18° 305° (NW) 11:48:05 467.674
AISAT 27 Nov 11:44:26 11:48:53 76° 289° (WNW) 11:53:18 437.250
FUNcube-1 27 Nov 11:45:29 11:49:34 49° 292° (WNW) 11:53:41 145.935
Oscar 11 27 Nov 11:50:37 11:54:16 27° 300° (WNW) 11:57:54 145.826/435.025
DELFI C3 27 Nov 11:51:04 11:54:34 27° 299° (WNW) 11:58:03 145.870
CUBEBUG 1 27 Nov 11:51:36 11:55:57 58° 102° (ESE) 12:00:15 437.445
AAUSAT CUBESAT 2 27 Nov 11:54:13 11:56:47 16° 307° (NW) 11:59:22 437.432
50 SAT 27 Nov 11:57:08 12:01:10 64° 289° (WNW) 12:05:12 437.505
POLYITAN 1 27 Nov 12:00:35 12:02:48 14° 274° (W) 12:05:02 437.675
ANTELSAT 27 Nov 12:01:52 12:02:51 11° 277° (W) 12:03:50 437.575/2403.000
QB50P2 27 Nov 12:02:04 12:04:13 14° 274° (W) 12:06:22 145.880/145.840
DUCHIFAT 1 27 Nov 12:07:30 12:09:18 12° 275° (W) 12:11:06 145.980
SO-50 27 Nov 12:10:17 12:14:55 46° 233° (SW) 12:19:35 436.795
COMPASS 1 27 Nov 12:11:28 12:12:56 12° 311° (NW) 12:14:25 437.405
UWE-3 27 Nov 12:15:55 12:19:25 26° 300° (WNW) 12:22:58 435.000/436.395/437.385
DX 1 27 Nov 12:17:53 12:21:04 20° 306° (NW) 12:24:14 434.975-435.025
HUMSAT D 27 Nov 12:18:51 12:22:42 37° 295° (WNW) 12:26:34 437.325/437.525
CUBEBUG 2 27 Nov 12:19:04 12:22:22 23° 302° (WNW) 12:25:43 437.445
ITAMSAT 1 27 Nov 12:24:50 12:29:21 31° 57° (ENE) 12:33:53 435.822/435.867
HO-68 27 Nov 12:30:57 12:36:21 24° 320° (NW) 12:41:45 435.675
DOVE 4 27 Nov 12:32:50 12:33:32 10° 313° (NW) 12:34:13 437.250
CUSAT 1 27 Nov 12:35:50 12:37:26 15° 90° (E) 12:39:07 437.405
AUBIESAT-1 27 Nov 12:46:42 12:49:06 13° 89° (E) 12:51:28 437.475
ZACube-1 27 Nov 12:48:02 12:50:50 18° 305° (NW) 12:53:40 437.345
ITUPSAT 1 27 Nov 12:48:58 12:51:44 15° 85° (E) 12:54:30 437.325
M-CUBED/EXP-1 PRIME 27 Nov 12:52:35 12:55:38 16° 92° (E) 12:58:40 437.505
VELOX 1 27 Nov 12:54:20 12:57:52 24° 303° (WNW) 13:01:23 145.980
TISAT 1 27 Nov 12:54:37 12:58:51 69° 104° (ESE) 13:03:03 437.305
ESTCUBE 1 27 Nov 12:58:01 13:02:19 42° 296° (WNW) 13:06:35 437.505/2401.250
SWISSCUBE 27 Nov 12:58:50 13:02:18 19° 88° (E) 13:05:44 437.505
Gurwin Techsat 1B 27 Nov 13:05:42 13:10:34 38° 60° (ENE) 13:15:27 435.225
GONETS M04 27 Nov 13:05:45 13:09:45 13° 338° (NNW) 13:13:47
JAS-2 27 Nov 13:06:01 13:09:11 13° 25° (NNE) 13:12:18 435.910
Oscar 19 27 Nov 13:06:46 13:11:53 75° 255° (WSW) 13:17:03 437.125/150
DANDE 27 Nov 13:07:52 13:10:10 28° 96° (E) 13:12:35 436.750
SPROUT 27 Nov 13:09:21 13:13:40 84° 105° (ESE) 13:17:58 437.525
YUBILEINY 27 Nov 13:12:41 13:21:24 65° 71° (ENE) 13:30:02 435.215
O/OREOS (USA 219) 27 Nov 13:17:53 13:21:16 20° 34° (NNE) 13:24:38 437.305
AISAT 27 Nov 13:22:12 13:24:52 16° 309° (NW) 13:27:31 437.250
FUNcube-1 27 Nov 13:24:20 13:25:03 10° 313° (NW) 13:25:46 145.935
AO-7 27 Nov 13:26:48 13:33:58 34° 42° (NE) 13:41:09 29.400- 29.500
CUBEBUG 1 27 Nov 13:28:29 13:32:05 25° 302° (WNW) 13:35:38 437.445
BEESAT 27 Nov 13:29:06 13:33:22 31° 94° (E) 13:37:36 436.000
50 SAT 27 Nov 13:34:06 13:35:46 12° 310° (NW) 13:37:26 437.505
HORYU 2 27 Nov 13:53:41 13:57:49 39° 63° (ENE) 14:01:59 437.375
ITAMSAT 1 27 Nov 14:03:26 14:08:36 61° 258° (WSW) 14:13:48 435.822/435.867
CUSAT 1 27 Nov 14:18:06 14:20:22 25° 295° (WNW) 14:22:50 437.405
HO-68 27 Nov 14:19:30 14:21:41 12° 345° (NNW) 14:23:52 435.675
AUBIESAT-1 27 Nov 14:20:02 14:24:58 66° 109° (ESE) 14:29:49 437.475
STARS 27 Nov 14:22:55 14:25:55 18° 89° (E) 14:28:54 437.465
ITUPSAT 1 27 Nov 14:25:35 14:30:27 81° 106° (ESE) 14:35:16 437.325
M-CUBED/EXP-1 PRIME 27 Nov 14:26:27 14:31:25 79° 111° (ESE) 14:36:20 437.505
TISAT 1 27 Nov 14:31:09 14:34:20 21° 304° (WNW) 14:37:29 437.305
SWISSCUBE 27 Nov 14:35:55 14:40:46 80° 289° (WNW) 14:45:34 437.505
ESTCUBE 1 27 Nov 14:37:43 14:38:07 10° 317° (NW) 14:38:31 437.505/2401.250
Gurwin Techsat 1B 27 Nov 14:45:20 14:50:28 48° 261° (W) 14:55:39 435.225
JAS-2 27 Nov 14:45:29 14:51:59 30° 48° (NE) 14:58:21 435.910
RS-15 27 Nov 14:46:02 14:53:13 21° 98° (E) 15:00:23 29.354- 29.394
SPROUT 27 Nov 14:46:19 14:49:16 18° 306° (NW) 14:52:12 437.525
Oscar 19 27 Nov 14:49:17 14:52:09 15° 276° (W) 14:55:02 437.125/150
DANDE 27 Nov 14:52:20 14:53:52 14° 301° (WNW) 14:55:29 436.750
O/OREOS (USA 219) 27 Nov 14:56:56 15:01:26 76° 56° (NE) 15:05:55 437.305
KKS-1 27 Nov 15:06:16 15:10:39 53° 101° (E) 15:15:00 437.445
BEESAT 27 Nov 15:06:48 15:11:27 50° 294° (WNW) 15:16:04 436.000
GONETS M04 27 Nov 15:09:12 15:12:02 12° 13° (NNE) 15:14:52
YUBILEINY 27 Nov 15:09:57 15:17:53 41° 276° (W) 15:25:47 435.215
AO-7 27 Nov 15:17:38 15:25:58 88° 66° (ENE) 15:34:22 29.400- 29.500
Cubesat XI-IV 27 Nov 15:19:29 15:22:01 14° 41° (NE) 15:24:32 437.490
HORYU 2 27 Nov 15:30:31 15:34:35 35° 264° (W) 15:38:41 437.375
MaSat-1 27 Nov 15:46:05 15:48:46 51° 123° (ESE) 15:51:15 437.345
ITAMSAT 1 27 Nov 15:47:14 15:49:13 12° 278° (W) 15:51:12 435.822/435.867
AUBIESAT-1 27 Nov 15:55:25 15:59:38 30° 309° (NW) 16:03:51 437.475
CUTE-I 27 Nov 15:58:25 16:02:23 22° 50° (NE) 16:06:21 437.470
STARS 27 Nov 15:58:33 16:02:58 77° 289° (WNW) 16:07:22 437.465
M-CUBED/EXP-1 PRIME 27 Nov 16:02:00 16:06:02 26° 311° (NW) 16:10:05 437.505
ITUPSAT 1 27 Nov 16:04:11 16:07:52 22° 306° (NW) 16:11:31 437.325
HO-68 27 Nov 16:04:35 16:06:26 11° 12° (NNE) 16:08:16 435.675
SWISSCUBE 27 Nov 16:14:45 16:17:58 18° 310° (NW) 16:21:11 437.505
MOZHAYETS 4 27 Nov 16:23:35 16:26:35 17° 86° (E) 16:29:34
JAS-2 27 Nov 16:28:17 16:36:07 82° 70° (ENE) 16:43:56 435.910
O/OREOS (USA 219) 27 Nov 16:37:08 16:40:21 20° 257° (WSW) 16:43:34 437.305
KKS-1 27 Nov 16:43:20 16:47:06 27° 301° (WNW) 16:50:50 437.445
BEESAT 27 Nov 16:46:17 16:48:19 13° 316° (NW) 16:50:20 436.000
RS-15 27 Nov 16:52:32 17:03:12 63° 124° (SE) 17:13:59 29.354- 29.394
Cubesat XI-IV 27 Nov 16:55:51 17:00:58 47° 63° (ENE) 17:06:06 437.490
GONETS M04 27 Nov 17:06:17 17:13:17 25° 46° (NE) 17:20:13
YUBILEINY 27 Nov 17:10:39 17:12:05 11° 301° (WNW) 17:13:32 435.215
AO-7 27 Nov 17:12:47 17:19:48 30° 269° (W) 17:26:54 29.400- 29.500
MaSat-1 27 Nov 17:21:39 17:23:26 16° 322° (NW) 17:25:09 437.345
